CZ-6A DEB

Satellite information

Favourite Embed

Satellite Type and Status

DEBRISIN ORBIT

Key statistics

Satellite CZ-6A DEB at a glance.

Uptime

1072

Days in orbit

Revolutions

≈ 14.7

Per day

Orbit

SSO

Sun Synchronous Orbit

Inclination

98.6

Latest

Satellite identification and parameters

Extended collection of information and parameters for CZ-6A DEB.

Object identification

Identified? True

Debris? True

Object name: CZ-6A DEB

International designator: 2022-151VM

Object number (NORAD): 55196

Object ID (CCSDS): 55196

Country: PEOPLES REPUBLIC OF CHINA (PRC)

Current information (Y/N): Y

RCS size: SMALL

Orbital parameters

Period: 97.907 minutes

Inclination: 98.6483 deg

SMA: 7036.686 km

Apoapsis: 709.468 km

Periapsis: 607.634 km

RAAN: 344.7983 deg

Eccentricy: 0.00723597

Argument of periapsis: 302.1644 deg

Mean anomaly: 57.2555 deg

Mean motion: 14.70789521 rev/day

Mean motion (dot): 0.00028508 rev/day2

B* drag term: 0.004475464 1/REarth

Two-line elements (TLE)

Creation date: Oct. 18, 2025, 2:17 a.m.

Reference frame: TEME

Reference center: EARTH

Epoch: Oct. 17, 2025, 9:03 p.m. UTC

TLE line 0: 0 CZ-6A DEB

TLE line 1: 1 55196U 22151VM 25290.87773595 .00028508 00000-0 44755-2 0 9996

TLE line 2: 2 55196 98.6483 344.7983 0072360 302.1644 57.2555 14.70789521149919

Live tracking on map

Real-time ground track for satellite CZ-6A DEB.

In-orbit conjunctions

A list of the most updated potential collisions computed for object CZ-6A DEB.

Target Orbit TCA Probability of collision Miss distance Type
COSMOS 807 LEO 2025-10-04 21:34:10 0.0004004225 311.0 (m) PAYLOAD
ST5-A HEO 2025-05-08 08:45:06 0.0001330627 582.0 (m) PAYLOAD
CZ-6A DEB LEO 2025-02-03 04:53:27 0.0003286179 32.0 (m) DEBRIS
CZ-6A DEB SSO 2024-11-14 17:58:41 0.0003606204 902.0 (m) DEBRIS

Associated space launch

Chinese satellite reported for atmospheric/ocean/environmental/spatial parameter research purposes, details TBD.

CZ-6A DEB was lifted into orbit during the mission ‘Long March 6A | Yunhai 3’, on board a Long March 6A space rocket.

The launch took place on Nov. 11, 2022, 10:52 p.m. from Launch Complex 9A.

For more information about the launch, click the button.

Launch to space Long March 6A | Yunhai 3
Long March 6A | Yunhai 3

Agency: N/A

Status: Launch Successful

Launch date: Nov. 11, 2022, 10:52 p.m. UTC

Rocket: Long March 6A

Launch pad: Launch Complex 9A

Location: Taiyuan Satellite Launch Center, People's Republic of China

...

Latest news about this satellite

There are no fresh news available about this satellite. Check back as we update our databases every day.


Newsletter sign-up

Weekly statistics, charts and insights to help you stay on top of the space industry.